• In Österreich
  • Länderverzeichnis
  • Für 7 Tage
  • Wassertemperatur
  • Satellitenkarten
  • Wetterkarte
  • News
  • Widgets
  • user-avatar
    Anmelden

    Stündliche Wetter Krasin

    Heute, 17 Juli, Dienstag

    Zeit Temperatur Niederschläge Wind Luftdruck Luftfeuchtigkeit
    00:00 +19°C° 0,3 mm 2 m/S 751 mmHg 94%
    01:00 +19°C° 0,3 mm 2 m/S 751 mmHg 95%
    02:00 +18°C° 0,2 mm 2 m/S 751 mmHg 95%
    03:00 +18°C° 0,2 mm 2 m/S 751 mmHg 95%
    04:00 +18°C° 0,2 mm 2 m/S 751 mmHg 95%
    05:00 +19°C° 0,1 mm 3 m/S 750 mmHg 94%
    06:00 +20°C° 0,1 mm 3 m/S 750 mmHg 93%
    07:00 +20°C° 0,1 mm 3 m/S 750 mmHg 92%
    08:00 +21°C° 0,7 mm 3 m/S 750 mmHg 91%
    09:00 +21°C° 0,7 mm 4 m/S 750 mmHg 90%
    10:00 +22°C° 0,7 mm 4 m/S 750 mmHg 89%
    11:00 +22°C° 1 mm 4 m/S 750 mmHg 88%
    12:00 +22°C° 1 mm 4 m/S 750 mmHg 87%
    13:00 +23°C° 1 mm 4 m/S 750 mmHg 86%
    14:00 +22°C° 1,1 mm 4 m/S 750 mmHg 88%
    15:00 +22°C° 1,1 mm 4 m/S 750 mmHg 90%
    16:00 +22°C° 1,1 mm 4 m/S 750 mmHg 92%
    17:00 +21°C° 1,2 mm 4 m/S 750 mmHg 93%
    18:00 +21°C° 1,2 mm 3 m/S 750 mmHg 94%
    19:00 +20°C° 1,2 mm 3 m/S 750 mmHg 95%
    20:00 +20°C° 1 mm 3 m/S 750 mmHg 95%
    21:00 +20°C° 1 mm 3 m/S 750 mmHg 96%
    22:00 +20°C° 1 mm 3 m/S 750 mmHg 96%
    23:00 +20°C° 0,8 mm 3 m/S 750 mmHg 96%

    Morgen, 18 Juli, Mittwoch

    Zeit Temperatur Niederschläge Wind Luftdruck Luftfeuchtigkeit
    00:00 +20°C° 0,8 mm 3 m/S 750 mmHg 97%
    01:00 +20°C° 0,8 mm 3 m/S 750 mmHg 97%
    02:00 +20°C° 0,1 mm 3 m/S 750 mmHg 97%
    03:00 +19°C° 0,1 mm 3 m/S 750 mmHg 97%
    04:00 +19°C° 0,1 mm 3 m/S 750 mmHg 97%
    05:00 +20°C° 0,1 mm 3 m/S 750 mmHg 95%
    06:00 +21°C° 0,1 mm 3 m/S 750 mmHg 93%
    07:00 +22°C° 0,1 mm 3 m/S 750 mmHg 91%
    08:00 +24°C° 0,6 mm 3 m/S 750 mmHg 87%
    09:00 +25°C° 0,6 mm 4 m/S 750 mmHg 84%
    10:00 +26°C° 0,6 mm 4 m/S 750 mmHg 80%
    11:00 +27°C° 0,7 mm 4 m/S 750 mmHg 78%
    12:00 +27°C° 0,7 mm 4 m/S 750 mmHg 75%
    13:00 +28°C° 0,7 mm 4 m/S 750 mmHg 73%
    14:00 +28°C° 0,7 mm 4 m/S 751 mmHg 75%
    15:00 +27°C° 0,7 mm 5 m/S 751 mmHg 77%
    16:00 +27°C° 0,7 mm 5 m/S 751 mmHg 78%
    17:00 +26°C° 0,3 mm 5 m/S 751 mmHg 81%
    18:00 +23°C° 0,3 mm 4 m/S 751 mmHg 84%
    19:00 +22°C° 0,3 mm 4 m/S 751 mmHg 87%
    20:00 +21°C° 0 mm 4 m/S 752 mmHg 88%
    21:00 +20°C° 0 mm 4 m/S 752 mmHg 89%
    22:00 +19°C° 0 mm 3 m/S 752 mmHg 90%
    23:00 +19°C° 0 mm 3 m/S 752 mmHg 90%

    übermorgen, 19 Juli, Donnerstag

    Zeit Temperatur Niederschläge Wind Luftdruck Luftfeuchtigkeit
    00:00 +19°C° 0 mm 3 m/S 752 mmHg 90%
    01:00 +19°C° 0 mm 3 m/S 752 mmHg 90%
    02:00 +18°C° 0 mm 3 m/S 752 mmHg 91%
    03:00 +18°C° 0 mm 3 m/S 752 mmHg 92%
    04:00 +18°C° 0 mm 3 m/S 752 mmHg 92%
    05:00 +19°C° 0 mm 3 m/S 752 mmHg 89%
    06:00 +21°C° 0 mm 3 m/S 752 mmHg 86%
    07:00 +22°C° 0 mm 4 m/S 753 mmHg 82%
    08:00 +23°C° 0,1 mm 4 m/S 753 mmHg 78%
    09:00 +25°C° 0,1 mm 4 m/S 753 mmHg 74%
    10:00 +26°C° 0,1 mm 5 m/S 753 mmHg 70%
    11:00 +27°C° 0,1 mm 5 m/S 753 mmHg 68%
    12:00 +27°C° 0,1 mm 5 m/S 753 mmHg 66%
    13:00 +27°C° 0,1 mm 5 m/S 753 mmHg 65%
    14:00 +27°C° 0 mm 5 m/S 753 mmHg 67%
    15:00 +26°C° 0 mm 5 m/S 753 mmHg 68%
    16:00 +26°C° 0 mm 6 m/S 753 mmHg 70%
    17:00 +23°C° 0 mm 5 m/S 753 mmHg 75%
    18:00 +22°C° 0 mm 4 m/S 753 mmHg 80%
    19:00 +21°C° 0 mm 4 m/S 753 mmHg 84%
    20:00 +20°C° 0 mm 4 m/S 753 mmHg 87%
    21:00 +19°C° 0 mm 3 m/S 753 mmHg 91%
    22:00 +18°C° 0 mm 3 m/S 753 mmHg 94%
    23:00 +17°C° 0 mm 3 m/S 753 mmHg 94%

    20 Juli, Freitag

    Zeit Temperatur Niederschläge Wind Luftdruck Luftfeuchtigkeit
    00:00 +17°C° 0 mm 3 m/S 753 mmHg 94%
    01:00 +17°C° 0 mm 3 m/S 753 mmHg 94%
    02:00 +17°C° 0 mm 3 m/S 753 mmHg 93%
    03:00 +17°C° 0 mm 3 m/S 753 mmHg 93%
    04:00 +17°C° 0 mm 3 m/S 753 mmHg 92%
    05:00 +18°C° 0 mm 4 m/S 753 mmHg 89%
    06:00 +20°C° 0 mm 4 m/S 753 mmHg 85%
    07:00 +21°C° 0 mm 4 m/S 753 mmHg 81%
    08:00 +22°C° 0 mm 4 m/S 753 mmHg 77%
    09:00 +23°C° 0 mm 4 m/S 753 mmHg 74%
    10:00 +25°C° 0 mm 5 m/S 753 mmHg 70%
    11:00 +25°C° 0,1 mm 5 m/S 753 mmHg 67%
    12:00 +26°C° 0,1 mm 5 m/S 753 mmHg 65%
    13:00 +27°C° 0,1 mm 5 m/S 753 mmHg 63%
    14:00 +26°C° 0,1 mm 5 m/S 753 mmHg 64%
    15:00 +26°C° 0,1 mm 5 m/S 753 mmHg 65%
    16:00 +26°C° 0,1 mm 5 m/S 753 mmHg 67%
    17:00 +23°C° 0 mm 4 m/S 753 mmHg 72%
    18:00 +22°C° 0 mm 4 m/S 753 mmHg 77%
    19:00 +21°C° 0 mm 3 m/S 753 mmHg 82%
    20:00 +20°C° 0 mm 3 m/S 753 mmHg 86%
    21:00 +19°C° 0 mm 3 m/S 753 mmHg 89%
    22:00 +17°C° 0 mm 3 m/S 753 mmHg 92%
    23:00 +17°C° 0 mm 3 m/S 753 mmHg 92%

    21 Juli, Samstag

    Zeit Temperatur Niederschläge Wind Luftdruck Luftfeuchtigkeit
    00:00 +17°C° 0 mm 3 m/S 753 mmHg 92%
    01:00 +16°C° 0 mm 3 m/S 753 mmHg 92%
    02:00 +16°C° 0 mm 3 m/S 753 mmHg 91%
    03:00 +16°C° 0 mm 3 m/S 753 mmHg 91%
    04:00 +14°C° 0 mm 3 m/S 753 mmHg 90%
    05:00 +17°C° 0 mm 3 m/S 753 mmHg 86%
    06:00 +18°C° 0 mm 3 m/S 753 mmHg 81%
    07:00 +20°C° 0 mm 3 m/S 753 mmHg 76%
    08:00 +21°C° 0 mm 3 m/S 753 mmHg 72%
    09:00 +24°C° 0 mm 3 m/S 753 mmHg 68%
    10:00 +25°C° 0 mm 3 m/S 753 mmHg 65%
    11:00 +26°C° 0,1 mm 4 m/S 753 mmHg 64%
    12:00 +26°C° 0,1 mm 4 m/S 753 mmHg 63%
    13:00 +26°C° 0,1 mm 4 m/S 753 mmHg 62%
    14:00 +26°C° 0,1 mm 4 m/S 753 mmHg 64%
    15:00 +25°C° 0,1 mm 4 m/S 753 mmHg 66%
    16:00 +25°C° 0,1 mm 4 m/S 753 mmHg 68%
    17:00 +22°C° 0 mm 3 m/S 753 mmHg 73%
    18:00 +21°C° 0 mm 3 m/S 753 mmHg 78%
    19:00 +20°C° 0 mm 3 m/S 753 mmHg 82%
    20:00 +18°C° 0 mm 2 m/S 753 mmHg 84%
    21:00 +17°C° 0 mm 2 m/S 753 mmHg 85%
    22:00 +16°C° 0 mm 2 m/S 753 mmHg 86%
    23:00 +15°C° 0 mm 2 m/S 753 mmHg 86%

    22 Juli, Sonntag

    Zeit Temperatur Niederschläge Wind Luftdruck Luftfeuchtigkeit
    00:00 +15°C° 0 mm 2 m/S 753 mmHg 86%
    01:00 +15°C° 0 mm 2 m/S 753 mmHg 86%
    02:00 +14°C° 0 mm 2 m/S 753 mmHg 87%
    03:00 +14°C° 0 mm 2 m/S 753 mmHg 87%
    04:00 +14°C° 0 mm 2 m/S 753 mmHg 88%
    05:00 +16°C° 0 mm 2 m/S 753 mmHg 83%
    06:00 +17°C° 0 mm 2 m/S 753 mmHg 79%
    07:00 +19°C° 0 mm 2 m/S 753 mmHg 74%
    08:00 +20°C° 0 mm 2 m/S 753 mmHg 69%
    09:00 +21°C° 0 mm 2 m/S 753 mmHg 65%
    10:00 +24°C° 0 mm 2 m/S 753 mmHg 60%
    11:00 +24°C° 0 mm 2 m/S 753 mmHg 59%
    12:00 +25°C° 0 mm 2 m/S 753 mmHg 57%
    13:00 +25°C° 0 mm 2 m/S 753 mmHg 56%
    14:00 +25°C° 0 mm 2 m/S 753 mmHg 57%
    15:00 +25°C° 0 mm 2 m/S 753 mmHg 58%
    16:00 +25°C° 0 mm 2 m/S 753 mmHg 59%
    17:00 +23°C° 0,1 mm 2 m/S 753 mmHg 65%
    18:00 +22°C° 0,1 mm 1 m/S 753 mmHg 70%
    19:00 +21°C° 0,1 mm 1 m/S 753 mmHg 76%
    20:00 +20°C° 0,1 mm 1 m/S 753 mmHg 78%
    21:00 +19°C° 0,1 mm 1 m/S 753 mmHg 81%
    22:00 +18°C° 0,1 mm 1 m/S 754 mmHg 83%
    23:00 +16°C° 0 mm 1 m/S 754 mmHg 84%
    Mehr zeigen